When you browse on this site, cookies collect data to enhance your experience and personalize the content and advertising you see.
Visit our Privacy Policy to learn more. By continuing to use the site, you agree to this use of cookies and data.
  • en Suisse
  • Liste des pays
  • À 7 jours
  • Température de l'eau
  • Carte satellitaire
  • Carte météo
  • Widgets météo
  • user-avatar
    Se connecter

    Météo par heure à Luanda

    Ce jour, 20 Mars, Mercredi

    Heure Température Précipitation Vent Pression Humidité
    00:00 +30°C° 0 mm 3 m/s 752 mmHg 86%
    01:00 +29°C° 0 mm 3 m/s 752 mmHg 89%
    02:00 +29°C° 0 mm 3 m/s 752 mmHg 89%
    03:00 +29°C° 0 mm 4 m/s 752 mmHg 90%
    04:00 +29°C° 0 mm 4 m/s 751 mmHg 90%
    05:00 +29°C° 0 mm 3 m/s 752 mmHg 90%
    06:00 +29°C° 0 mm 3 m/s 752 mmHg 89%
    07:00 +29°C° 0 mm 3 m/s 752 mmHg 88%
    08:00 +30°C° 0 mm 2 m/s 752 mmHg 81%
    09:00 +31°C° 0 mm 2 m/s 753 mmHg 75%
    10:00 +34°C° 0 mm 2 m/s 753 mmHg 68%
    11:00 +34°C° 0 mm 2 m/s 752 mmHg 65%
    12:00 +35°C° 0 mm 2 m/s 751 mmHg 63%
    13:00 +36°C° 0 mm 3 m/s 751 mmHg 60%
    14:00 +35°C° 0.2 mm 3 m/s 750 mmHg 62%
    15:00 +35°C° 0.2 mm 4 m/s 750 mmHg 64%
    16:00 +35°C° 0.2 mm 4 m/s 750 mmHg 66%
    17:00 +34°C° 1 mm 4 m/s 750 mmHg 72%
    18:00 +31°C° 1 mm 3 m/s 751 mmHg 77%
    19:00 +30°C° 1 mm 3 m/s 751 mmHg 82%
    20:00 +30°C° 0 mm 3 m/s 751 mmHg 82%
    21:00 +30°C° 0 mm 2 m/s 751 mmHg 83%
    22:00 +30°C° 0 mm 2 m/s 752 mmHg 83%
    23:00 +30°C° 0.2 mm 3 m/s 752 mmHg 84%

    Demain, 21 Mars, Jeudi

    Heure Température Précipitation Vent Pression Humidité
    00:00 +29°C° 0.2 mm 4 m/s 752 mmHg 84%
    01:00 +29°C° 0.2 mm 5 m/s 752 mmHg 85%
    02:00 +29°C° 0 mm 5 m/s 751 mmHg 86%
    03:00 +29°C° 0 mm 5 m/s 751 mmHg 87%
    04:00 +29°C° 0 mm 5 m/s 751 mmHg 88%
    05:00 +28°C° 0 mm 4 m/s 751 mmHg 88%
    06:00 +28°C° 0 mm 3 m/s 751 mmHg 88%
    07:00 +28°C° 0 mm 2 m/s 752 mmHg 88%
    08:00 +30°C° 0 mm 2 m/s 752 mmHg 81%
    09:00 +31°C° 0 mm 2 m/s 753 mmHg 74%
    10:00 +32°C° 0 mm 2 m/s 753 mmHg 67%
    11:00 +35°C° 0 mm 2 m/s 752 mmHg 61%
    12:00 +37°C° 0 mm 2 m/s 752 mmHg 54%
    13:00 +38°C° 0 mm 3 m/s 751 mmHg 48%
    14:00 +37°C° 0 mm 4 m/s 750 mmHg 53%
    15:00 +36°C° 0 mm 5 m/s 750 mmHg 58%
    16:00 +35°C° 0 mm 6 m/s 749 mmHg 63%
    17:00 +34°C° 0 mm 5 m/s 750 mmHg 68%
    18:00 +33°C° 0 mm 5 m/s 750 mmHg 73%
    19:00 +30°C° 0 mm 5 m/s 750 mmHg 78%
    20:00 +30°C° 0 mm 5 m/s 751 mmHg 78%
    21:00 +30°C° 0 mm 4 m/s 752 mmHg 79%
    22:00 +30°C° 0 mm 4 m/s 752 mmHg 80%
    23:00 +30°C° 0 mm 4 m/s 752 mmHg 80%

    Après-demain, 22 Mars, Vendredi

    Heure Température Précipitation Vent Pression Humidité
    00:00 +30°C° 0 mm 3 m/s 751 mmHg 81%
    01:00 +29°C° 0 mm 3 m/s 751 mmHg 82%
    02:00 +29°C° 0 mm 3 m/s 751 mmHg 83%
    03:00 +29°C° 0 mm 3 m/s 750 mmHg 84%
    04:00 +29°C° 0 mm 4 m/s 750 mmHg 85%
    05:00 +29°C° 0 mm 3 m/s 750 mmHg 85%
    06:00 +29°C° 0 mm 3 m/s 751 mmHg 85%
    07:00 +29°C° 0 mm 2 m/s 751 mmHg 85%
    08:00 +30°C° 0 mm 2 m/s 752 mmHg 75%
    09:00 +32°C° 0 mm 2 m/s 752 mmHg 66%
    10:00 +34°C° 0 mm 1 m/s 753 mmHg 57%
    11:00 +36°C° 0 mm 2 m/s 752 mmHg 54%
    12:00 +36°C° 0 mm 3 m/s 751 mmHg 51%
    13:00 +37°C° 0 mm 4 m/s 751 mmHg 49%
    14:00 +36°C° 0 mm 5 m/s 750 mmHg 55%
    15:00 +35°C° 0 mm 5 m/s 750 mmHg 60%
    16:00 +34°C° 0 mm 5 m/s 749 mmHg 66%
    17:00 +33°C° 0 mm 5 m/s 750 mmHg 70%
    18:00 +33°C° 0 mm 5 m/s 750 mmHg 74%
    19:00 +32°C° 0 mm 5 m/s 751 mmHg 78%
    20:00 +30°C° 0 mm 5 m/s 752 mmHg 79%
    21:00 +30°C° 0 mm 5 m/s 752 mmHg 81%
    22:00 +30°C° 0 mm 5 m/s 753 mmHg 83%
    23:00 +30°C° 0.4 mm 4 m/s 753 mmHg 84%

    23 Mars, Samedi

    Heure Température Précipitation Vent Pression Humidité
    00:00 +29°C° 0.4 mm 4 m/s 753 mmHg 85%
    01:00 +29°C° 0.4 mm 3 m/s 753 mmHg 86%
    02:00 +29°C° 1.3 mm 3 m/s 752 mmHg 87%
    03:00 +29°C° 1.3 mm 3 m/s 752 mmHg 88%
    04:00 +29°C° 1.3 mm 3 m/s 751 mmHg 89%
    05:00 +29°C° 0.3 mm 3 m/s 752 mmHg 88%
    06:00 +29°C° 0.3 mm 3 m/s 752 mmHg 88%
    07:00 +29°C° 0.3 mm 3 m/s 753 mmHg 88%
    08:00 +30°C° 0 mm 3 m/s 753 mmHg 81%
    09:00 +31°C° 0 mm 2 m/s 754 mmHg 75%
    10:00 +34°C° 0 mm 2 m/s 754 mmHg 68%
    11:00 +34°C° 0 mm 3 m/s 753 mmHg 65%
    12:00 +35°C° 0 mm 3 m/s 752 mmHg 62%
    13:00 +36°C° 0 mm 3 m/s 751 mmHg 60%
    14:00 +35°C° 0 mm 4 m/s 751 mmHg 61%
    15:00 +35°C° 0 mm 4 m/s 751 mmHg 63%
    16:00 +35°C° 0 mm 5 m/s 750 mmHg 65%
    17:00 +34°C° 0.1 mm 4 m/s 751 mmHg 70%
    18:00 +32°C° 0.1 mm 4 m/s 751 mmHg 75%
    19:00 +30°C° 0.1 mm 3 m/s 752 mmHg 80%
    20:00 +30°C° 0.1 mm 4 m/s 752 mmHg 81%
    21:00 +30°C° 0.1 mm 4 m/s 752 mmHg 82%
    22:00 +30°C° 0.1 mm 4 m/s 753 mmHg 83%
    23:00 +30°C° 0 mm 4 m/s 753 mmHg 83%

    24 Mars, Dimanche

    Heure Température Précipitation Vent Pression Humidité
    00:00 +29°C° 0 mm 4 m/s 752 mmHg 84%
    01:00 +29°C° 0 mm 4 m/s 752 mmHg 85%
    02:00 +29°C° 1.1 mm 4 m/s 752 mmHg 86%
    03:00 +29°C° 1.1 mm 4 m/s 752 mmHg 87%
    04:00 +28°C° 1.1 mm 4 m/s 752 mmHg 87%
    05:00 +28°C° 0.1 mm 3 m/s 752 mmHg 87%
    06:00 +28°C° 0.1 mm 2 m/s 752 mmHg 87%
    07:00 +29°C° 0.1 mm 1 m/s 753 mmHg 88%
    08:00 +30°C° 0 mm 1 m/s 753 mmHg 82%
    09:00 +31°C° 0 mm 1 m/s 753 mmHg 77%
    10:00 +30°C° 0 mm 0 m/s 754 mmHg 72%
    11:00 +33°C° 0 mm 1 m/s 753 mmHg 68%
    12:00 +34°C° 0 mm 3 m/s 752 mmHg 64%
    13:00 +35°C° 0 mm 4 m/s 751 mmHg 60%
    14:00 +35°C° 0 mm 4 m/s 750 mmHg 61%
    15:00 +34°C° 0 mm 4 m/s 750 mmHg 63%
    16:00 +34°C° 0 mm 5 m/s 750 mmHg 65%
    17:00 +33°C° 0 mm 4 m/s 750 mmHg 69%
    18:00 +31°C° 0 mm 3 m/s 751 mmHg 72%
    19:00 +30°C° 0 mm 3 m/s 752 mmHg 76%
    20:00 +30°C° 0 mm 3 m/s 752 mmHg 77%
    21:00 +30°C° 0 mm 3 m/s 752 mmHg 79%
    22:00 +29°C° 0 mm 3 m/s 753 mmHg 80%
    23:00 +29°C° 0 mm 3 m/s 752 mmHg 81%

    25 Mars, Lundi

    Heure Température Précipitation Vent Pression Humidité
    00:00 +29°C° 0 mm 3 m/s 752 mmHg 82%
    01:00 +29°C° 0 mm 3 m/s 751 mmHg 83%
    02:00 +29°C° 0 mm 2 m/s 751 mmHg 84%
    03:00 +28°C° 0 mm 2 m/s 751 mmHg 85%
    04:00 +28°C° 0 mm 2 m/s 750 mmHg 86%
    05:00 +28°C° 0.1 mm 2 m/s 751 mmHg 87%
    06:00 +28°C° 0.1 mm 2 m/s 751 mmHg 87%
    07:00 +28°C° 0.1 mm 2 m/s 752 mmHg 88%
    08:00 +29°C° 0 mm 2 m/s 752 mmHg 82%
    09:00 +30°C° 0 mm 2 m/s 752 mmHg 76%
    10:00 +31°C° 0 mm 1 m/s 753 mmHg 70%
    11:00 +34°C° 0 mm 2 m/s 752 mmHg 65%
    12:00 +35°C° 0 mm 2 m/s 751 mmHg 60%
    13:00 +36°C° 0 mm 3 m/s 750 mmHg 55%
    14:00 +35°C° 0 mm 4 m/s 750 mmHg 58%
    15:00 +35°C° 0 mm 4 m/s 750 mmHg 61%
    16:00 +34°C° 0 mm 5 m/s 749 mmHg 64%
    17:00 +33°C° 0 mm 5 m/s 750 mmHg 69%
    18:00 +32°C° 0 mm 4 m/s 751 mmHg 74%
    19:00 +30°C° 0 mm 4 m/s 751 mmHg 78%
    20:00 +29°C° 0 mm 3 m/s 752 mmHg 79%
    21:00 +29°C° 0 mm 3 m/s 752 mmHg 80%
    22:00 +29°C° 0 mm 3 m/s 752 mmHg 80%
    23:00 +29°C° 0 mm 2 m/s 752 mmHg 81%
    Voir plus